Location: Mat�lon
(46.2791°N, 7.1028°E)
Time: 06:43:30
(UTC+00:00)

NOSS 3-2 (A) - Pass Details

Date: 18 September 2020
Orbit: 795 x 1413 km, 63.4° (Epoch: 02 October)

Event Time Altitude Azimuth Distance (km) Brightness Sun altitude
Rises 20:00:28 0° 319° (NW) 3,980 7.9 -24.5°
Reaches altitude 10° 20:03:02 10° 317° (NW) 3,100 7.1 -24.9°
Maximum altitude 20:10:32 67° 237° (WSW) 1,387 4.2 -25.9°
Enters shadow 20:13:56 39° 169° (SSE) 1,917 4.6 -26.4°
